This demonstration page uses our WeatherBlox Daily Observations layout. Learn more.

Left ArrowRight Arrow

34.74481, -87.66753

Hourly Observations for November 8, 2022

Temp ( °F °C ) Dew Point ( °F °C ) Humidity (%) Winds ( mph kmh ) Pressure ( in mb ) Visibility ( mi km ) Precip ( " mm )
12:53 am 00:53 Clear 62 16.7 60 15.6 93 93 Calm 30.29 1026 10 16 0.00 0.00
1:53 am 01:53 Clear with Mist and Fog 62 16.7 60 15.6 93 93 Calm 30.29 1026 3 4 0.00 0.00
2:02 am 02:02 Clear with Mist and Fog 62 16.7 61 16.1 96 96 Calm 30.30 1026 2 3 0.00 0.00
2:06 am 02:06 Clear with Mist and Fog 62 16.7 60 15.6 93 93 Calm 30.30 1026 3 5 0.00 0.00
2:53 am 02:53 Clear 63 17.2 60 15.6 90 90 ENE 3 6 30.28 1025 10 16 0.00 0.00
3:53 am 03:53 Mostly Cloudy 61 16.1 59 15 93 93 Calm 30.29 1026 10 16 0.00 0.00
4:53 am 04:53 Cloudy 63 17.2 61 16.1 93 93 Calm 30.30 1026 10 16 0.00 0.00
5:53 am 05:53 Cloudy 63 17.2 61 16.1 93 93 Calm 30.32 1027 10 16 0.00 0.00
6:53 am 06:53 Cloudy 64 17.8 60 15.6 87 87 N 3 6 30.33 1027 10 16 0.00 0.00
7:53 am 07:53 Cloudy 67 19.4 58 14.4 73 73 E 3 6 30.35 1028 10 16 0.00 0.00
8:53 am 08:53 Partly Cloudy 69 20.6 58 14.4 68 68 NE 5 7 30.36 1028 10 16 0.00 0.00
9:53 am 09:53 Cloudy 71 21.7 57 13.9 61 61 ENE 6 9 30.36 1028 10 16 0.00 0.00
10:53 am 10:53 Cloudy 76 24.4 59 15 56 56 VRB 5 7 30.33 1027 10 16 0.00 0.00
11:53 am 11:53 Cloudy 78 25.6 61 16.1 56 56 E 6 9 30.31 1026 10 16 0.00 0.00
12:53 pm 12:53 Mostly Cloudy 80 26.7 62 16.7 54 54 ENE 6 9 30.28 1026 10 16 0.00 0.00
1:53 pm 13:53 Sunny 82 27.8 62 16.7 51 51 ENE 3 6 30.27 1025 10 16 0.00 0.00
2:53 pm 14:53 Sunny 82 27.8 61 16.1 49 49 E 5 7 30.26 1025 10 16 0.00 0.00
3:53 pm 15:53 Sunny 81 27.2 61 16.1 51 51 E 7 11 30.26 1025 10 16 0.00 0.00
4:53 pm 16:53 Clear 76 24.4 61 16.1 60 60 ENE 3 6 30.27 1025 10 16 0.00 0.00
5:53 pm 17:53 Clear 74 23.3 59 15 60 60 NNE 5 7 30.27 1025 10 16 0.00 0.00
6:53 pm 18:53 Clear 73 22.8 58 14.4 59 59 NNE 7 11 30.28 1025 10 16 0.00 0.00
7:53 pm 19:53 Clear 70 21.1 57 13.9 63 63 NE 7 11 30.29 1026 10 16 0.00 0.00
8:53 pm 20:53 Clear 71 21.7 55 12.8 57 57 ENE 6 9 30.29 1026 10 16 0.00 0.00
9:53 pm 21:53 Clear 67 19.4 53 11.7 61 61 Calm 30.29 1026 10 16 0.00 0.00
10:53 pm 22:53 Clear 63 17.2 53 11.7 70 70 Calm 30.29 1026 10 16 0.00 0.00
11:53 pm 23:53 Clear 61 16.1 54 12.2 78 78 Calm 30.28 1026 10 16 0.00 0.00

Powered by AerisWeather